Regional Weather Roundup
Issued by NWS Sioux Falls, SD

Home | Current Version | Previous Version | Text Only | Print | Product List | Glossary On
Versions: 1 2 3 4 5 6 7 8 9 10 11 12 13 14 15 16 17 18 19 20 21 22 23 24 25 26 27 28 29 30 31 32 33 34 35 36 37 38 39 40 41 42 43 44 45 46 47 48 49 50
000
ASUS43 KFSD 122310
RWRFSD

WEATHER ROUNDUP FOR SE SOUTH DAKOTA/SW MINNESOTA/NW IOWA
NATIONAL WEATHER SERVICE SIOUX FALLS SD
600 PM CDT SAT JUL 12 2014

NOTE: "FAIR" INDICATES FEW OR NO CLOUDS BELOW 12,000 FEET WITH NO
SIGNIFICANT WEATHER AND OR OBSTRUCTIONS TO VISIBILITY.


SDZ038>040-050-052>070-130000-
SOUTHEAST SOUTH DAKOTA

CITY           SKY/WX    TMP DP  RH WIND       PRES   REMARKS
CHAMBERLAIN    SUNNY     82  62  50 N9        30.05S
HURON          MOSUNNY   80  65  59 NW10      30.02F
MADISON        FAIR      77  66  69 NW8       30.04S
MITCHELL       MOSUNNY   82  69  64 N10       30.03S
SIOUX FALLS    MOSUNNY   81  66  60 NW8       30.01S
WINNER         FAIR      83  63  50 NW10      30.06S
YANKTON        MOSUNNY   81  68  65 N3        30.02S
$$

MNZ071-072-080-081-089-090-097-098-130000-
SOUTHWEST MINNESOTA

CITY           SKY/WX    TMP DP  RH WIND       PRES   REMARKS
FAIRMONT       MOSUNNY   81  64  57 N7        29.96F
JACKSON        SUNNY     77  63  61 CALM      29.99S
LUVERNE        MOSUNNY   82  61  47 NW7       30.00S
MARSHALL       MOSUNNY   75  64  69 N9        29.99F
MONTEVIDEO     MOSUNNY   79  70  73 NW6       29.99S
PIPESTONE      MOSUNNY   79  63  57 N7        30.02S
REDWOOD FALLS  MOSUNNY   76  66  71 NW6       29.98R
TRACY          MOSUNNY   76  67  73 N6        30.01S
WINDOM         MOSUNNY   77  63  61 CALM      30.00R
WORTHINGTON    MOSUNNY   79  64  61 N6        30.02R
$$

IAZ001>003-012>014-020>022-031-032-NEZ013-014-SDZ071-130000-
NORTHWEST IOWA

CITY           SKY/WX    TMP DP  RH WIND       PRES   REMARKS
CHEROKEE       PTSUNNY   74  68  79 CALM      30.00F
DENISON        PTSUNNY   72  68  88 NE6       29.98F
ESTHERVILLE    SUNNY     78  65  63 N5        29.98S
LE MARS        PTSUNNY   77  70  78 NW3       30.01F
ORANGE CITY    MOSUNNY   77  68  73 CALM      30.01S
SHELDON        MOSUNNY   79  68  69 W3        29.99S
SIOUX CITY     PTSUNNY   77  69  76 CALM      30.00F
SPENCER        MOSUNNY   77  69  76 VRB6      29.99F
STORM LAKE     PTSUNNY   70  70 100 CALM      30.01F
$$

ABBREVIATIONS USED IN REMARKS
   TC - TEMPERATURE IN CELSIUS
  WCI - WIND CHILL INDEX
   HX - HEAT INDEX
  VSB - VISIBILITY




USA.gov is the U.S. government's official web portal to all federal, state and local government web resources and services.